EZY532 EGAC-EGGP

Flight info

Callsign EZY532
Flight time 0h 31m
Altitude 21000
Route DUFFY L15 PEPOD Q38 SOSIM L28 PENIL
Aircraft A320/M-SDE2E3FGHIJ1RWXYZ/LB1

Departure

Time 2026-04-20 15:30
Airport George Best Belfast City Airport (EGAC)

Arrival

Time 2026-04-20 16:02
Airport Liverpool John Lennon Airport (EGGP)
Time Latitude Longitude Altitude Speed Heading
2026-04-20 15:06 54.61499 -5.87145 22 ft 0 kts 156°
2026-04-20 15:22 54.61501 -5.87146 21 ft 2 kts 156°
2026-04-20 15:22 54.61522 -5.87162 23 ft 2 kts 156°
2026-04-20 15:23 54.61546 -5.87176 22 ft 4 kts 175°
2026-04-20 15:23 54.61571 -5.87171 21 ft 4 kts 206°
2026-04-20 15:23 54.61584 -5.87158 23 ft 1 kts 216°
2026-04-20 15:23 54.61586 -5.87156 23 ft 0 kts 216°
2026-04-20 15:25 54.61579 -5.87165 23 ft 3 kts 216°
2026-04-20 15:26 54.61554 -5.87196 21 ft 6 kts 216°
2026-04-20 15:26 54.61514 -5.87244 21 ft 8 kts 214°
2026-04-20 15:26 54.61467 -5.87301 21 ft 8 kts 214°
2026-04-20 15:26 54.61420 -5.87363 21 ft 9 kts 226°
2026-04-20 15:27 54.61380 -5.87449 21 ft 10 kts 219°
2026-04-20 15:27 54.61322 -5.87519 20 ft 11 kts 215°
2026-04-20 15:27 54.61255 -5.87599 17 ft 12 kts 214°
2026-04-20 15:27 54.61183 -5.87684 16 ft 12 kts 214°
2026-04-20 15:28 54.61119 -5.87760 18 ft 9 kts 214°
2026-04-20 15:28 54.61085 -5.87830 19 ft 7 kts 253°
2026-04-20 15:28 54.61094 -5.87917 19 ft 8 kts 295°
2026-04-20 15:28 54.61121 -5.87991 18 ft 6 kts 305°
2026-04-20 15:29 54.61147 -5.88037 18 ft 4 kts 341°
2026-04-20 15:29 54.61169 -5.88017 18 ft 4 kts 35°
2026-04-20 15:29 54.61232 -5.87944 17 ft 31 kts 35°
2026-04-20 15:29 54.61642 -5.87454 16 ft 107 kts 35°
2026-04-20 15:30 54.62389 -5.86561 315 ft 139 kts 35°
2026-04-20 15:30 54.63200 -5.85597 1075 ft 143 kts 36°
2026-04-20 15:30 54.64075 -5.84555 1621 ft 162 kts 36°
2026-04-20 15:30 54.65053 -5.83384 2105 ft 179 kts 37°
2026-04-20 15:31 54.66083 -5.82151 2729 ft 184 kts 38°
2026-04-20 15:31 54.67121 -5.80810 3329 ft 190 kts 51°
2026-04-20 15:31 54.67526 -5.78670 3870 ft 196 kts 97°
2026-04-20 15:31 54.66871 -5.76570 4411 ft 214 kts 141°
2026-04-20 15:32 54.65428 -5.75652 4969 ft 235 kts 174°
2026-04-20 15:32 54.63731 -5.75912 5508 ft 259 kts 195°
2026-04-20 15:32 54.62016 -5.77054 6375 ft 267 kts 202°
2026-04-20 15:32 54.60199 -5.77853 7131 ft 275 kts 179°
2026-04-20 15:33 54.58308 -5.77327 8018 ft 278 kts 161°
2026-04-20 15:33 54.56514 -5.76186 8974 ft 281 kts 158°
2026-04-20 15:33 54.54678 -5.74961 9927 ft 285 kts 158°
2026-04-20 15:33 54.52805 -5.73699 10602 ft 298 kts 157°
2026-04-20 15:34 54.50792 -5.72355 10993 ft 319 kts 158°
2026-04-20 15:34 54.48687 -5.70965 11695 ft 328 kts 158°
2026-04-20 15:34 54.46537 -5.69557 12496 ft 333 kts 159°
2026-04-20 15:34 54.44345 -5.68128 13288 ft 339 kts 159°
2026-04-20 15:35 54.42162 -5.66706 14117 ft 342 kts 159°
2026-04-20 15:35 54.39912 -5.65240 14775 ft 349 kts 159°
2026-04-20 15:35 54.37636 -5.63760 15503 ft 352 kts 159°
2026-04-20 15:35 54.35335 -5.62268 16205 ft 356 kts 159°
2026-04-20 15:36 54.33004 -5.60754 16886 ft 360 kts 159°
2026-04-20 15:36 54.30652 -5.59219 17560 ft 364 kts 158°
2026-04-20 15:36 54.28383 -5.57231 18226 ft 369 kts 147°
2026-04-20 15:36 54.26361 -5.54500 18851 ft 373 kts 135°
2026-04-20 15:37 54.24667 -5.51119 19419 ft 376 kts 124°
2026-04-20 15:37 54.23159 -5.47510 19999 ft 380 kts 124°
2026-04-20 15:37 54.21608 -5.43824 20557 ft 384 kts 125°
2026-04-20 15:37 54.20034 -5.40102 21123 ft 388 kts 125°
2026-04-20 15:38 54.18441 -5.36349 21680 ft 392 kts 125°
2026-04-20 15:38 54.16831 -5.32561 22228 ft 396 kts 125°
2026-04-20 15:38 54.15203 -5.28737 22800 ft 400 kts 125°
2026-04-20 15:38 54.13557 -5.24879 23228 ft 405 kts 125°
2026-04-20 15:39 54.11893 -5.20988 23305 ft 407 kts 125°
2026-04-20 15:39 54.10222 -5.17085 23312 ft 408 kts 125°
2026-04-20 15:39 54.08576 -5.13236 23312 ft 408 kts 125°
2026-04-20 15:39 54.06912 -5.09347 23311 ft 405 kts 125°
2026-04-20 15:40 54.05256 -5.05474 23314 ft 404 kts 125°
2026-04-20 15:40 54.03602 -5.01607 23311 ft 404 kts 125°
2026-04-20 15:40 54.01945 -4.97741 23312 ft 404 kts 126°
2026-04-20 15:40 54.00285 -4.93883 23312 ft 404 kts 126°
2026-04-20 15:41 53.98625 -4.90035 23309 ft 404 kts 126°
2026-04-20 15:41 53.96961 -4.86186 23309 ft 404 kts 126°
2026-04-20 15:41 53.95319 -4.82393 23301 ft 404 kts 126°
2026-04-20 15:41 53.93651 -4.78551 23300 ft 404 kts 126°
2026-04-20 15:42 53.91981 -4.74714 23299 ft 404 kts 126°
2026-04-20 15:42 53.90312 -4.70884 23312 ft 404 kts 126°
2026-04-20 15:42 53.88640 -4.67057 23303 ft 404 kts 126°
2026-04-20 15:42 53.86965 -4.63229 22839 ft 404 kts 126°
2026-04-20 15:43 53.85316 -4.59464 22617 ft 392 kts 126°
2026-04-20 15:43 53.83700 -4.55775 22163 ft 387 kts 126°
2026-04-20 15:43 53.82123 -4.52107 21691 ft 383 kts 122°
2026-04-20 15:43 53.80924 -4.48188 21237 ft 378 kts 110°
2026-04-20 15:44 53.79976 -4.44056 20764 ft 376 kts 110°
2026-04-20 15:44 53.79030 -4.39955 20314 ft 373 kts 110°
2026-04-20 15:44 53.78084 -4.35894 19885 ft 370 kts 110°
2026-04-20 15:44 53.77143 -4.31870 19460 ft 367 kts 110°
2026-04-20 15:45 53.76208 -4.27880 19045 ft 364 kts 110°
2026-04-20 15:45 53.75277 -4.23917 18634 ft 361 kts 110°
2026-04-20 15:45 53.74365 -4.20041 18179 ft 358 kts 110°
2026-04-20 15:45 53.73446 -4.16153 17729 ft 356 kts 110°
2026-04-20 15:46 53.72532 -4.12289 17296 ft 352 kts 110°
2026-04-20 15:46 53.71629 -4.08464 16853 ft 350 kts 110°
2026-04-20 15:46 53.70733 -4.04665 16439 ft 347 kts 110°
2026-04-20 15:46 53.69841 -4.00894 16024 ft 345 kts 111°
2026-04-20 15:47 53.68954 -3.97149 15621 ft 342 kts 110°
2026-04-20 15:47 53.68071 -3.93433 15193 ft 341 kts 111°
2026-04-20 15:47 53.67204 -3.89781 14808 ft 338 kts 111°
2026-04-20 15:47 53.66332 -3.86112 14411 ft 337 kts 111°
2026-04-20 15:48 53.65463 -3.82460 14024 ft 334 kts 111°
2026-04-20 15:48 53.64596 -3.78835 13598 ft 332 kts 111°
2026-04-20 15:48 53.63733 -3.75247 13187 ft 330 kts 111°
2026-04-20 15:48 53.62873 -3.71684 12779 ft 327 kts 111°
2026-04-20 15:49 53.61994 -3.68167 12390 ft 324 kts 116°
2026-04-20 15:49 53.60753 -3.65029 11973 ft 323 kts 131°
2026-04-20 15:49 53.59167 -3.62375 11565 ft 320 kts 136°
2026-04-20 15:49 53.57571 -3.59802 11221 ft 316 kts 136°
2026-04-20 15:50 53.56015 -3.57294 10850 ft 313 kts 135°
2026-04-20 15:50 53.54449 -3.54773 10480 ft 310 kts 135°
2026-04-20 15:50 53.52905 -3.52282 10173 ft 304 kts 136°
2026-04-20 15:50 53.51408 -3.49865 10034 ft 293 kts 135°
2026-04-20 15:51 53.49954 -3.47519 9726 ft 287 kts 135°
2026-04-20 15:51 53.48575 -3.45120 9368 ft 284 kts 128°
2026-04-20 15:51 53.47550 -3.42322 8980 ft 281 kts 115°
2026-04-20 15:51 53.46721 -3.39413 8559 ft 280 kts 116°
2026-04-20 15:52 53.45859 -3.36421 7811 ft 290 kts 116°
2026-04-20 15:52 53.44985 -3.33403 7519 ft 283 kts 116°
2026-04-20 15:52 53.44146 -3.30504 7381 ft 270 kts 116°
2026-04-20 15:53 53.42233 -3.25308 6722 ft 260 kts 137°
2026-04-20 15:53 53.40876 -3.23307 6258 ft 260 kts 142°
2026-04-20 15:53 53.39457 -3.21550 6020 ft 243 kts 144°
2026-04-20 15:53 53.38154 -3.20009 5886 ft 222 kts 145°
2026-04-20 15:54 53.36922 -3.18565 5634 ft 212 kts 145°
2026-04-20 15:54 53.35693 -3.17133 5108 ft 216 kts 145°
2026-04-20 15:54 53.34467 -3.15707 4672 ft 214 kts 145°
2026-04-20 15:54 53.33253 -3.14296 4254 ft 211 kts 145°
2026-04-20 15:55 53.31952 -3.13259 3926 ft 204 kts 167°
2026-04-20 15:55 53.30589 -3.12990 3793 ft 191 kts 176°
2026-04-20 15:55 53.29312 -3.13377 3581 ft 188 kts 203°
2026-04-20 15:55 53.28328 -3.14763 3393 ft 192 kts 236°
2026-04-20 15:56 53.27973 -3.16897 3274 ft 196 kts 273°
2026-04-20 15:56 53.28481 -3.18993 3200 ft 199 kts 313°
2026-04-20 15:56 53.29641 -3.20209 3129 ft 199 kts 344°
2026-04-20 15:56 53.31000 -3.20365 3077 ft 196 kts 15°
2026-04-20 15:57 53.32150 -3.19344 2998 ft 185 kts 56°
2026-04-20 15:57 53.32441 -3.17379 2942 ft 176 kts 106°
2026-04-20 15:57 53.31980 -3.15487 2911 ft 177 kts 110°
2026-04-20 15:57 53.31993 -3.13443 2857 ft 180 kts 80°
2026-04-20 15:58 53.32149 -3.11403 2802 ft 179 kts 89°
2026-04-20 15:58 53.32226 -3.09321 2722 ft 179 kts 89°
2026-04-20 15:58 53.32316 -3.07244 2522 ft 179 kts 88°
2026-04-20 15:58 53.32413 -3.05170 2290 ft 178 kts 87°
2026-04-20 15:59 53.32510 -3.03128 2054 ft 173 kts 87°
2026-04-20 15:59 53.32604 -3.01147 1814 ft 168 kts 87°
2026-04-20 15:59 53.32695 -2.99228 1583 ft 163 kts 86°
2026-04-20 15:59 53.32783 -2.97385 1378 ft 156 kts 86°
2026-04-20 16:00 53.32865 -2.95651 1159 ft 147 kts 86°
2026-04-20 16:00 53.32943 -2.93998 959 ft 140 kts 86°
2026-04-20 16:00 53.33019 -2.92368 774 ft 141 kts 86°
2026-04-20 16:00 53.33100 -2.90726 612 ft 143 kts 88°
2026-04-20 16:01 53.33169 -2.89065 425 ft 144 kts 88°
2026-04-20 16:01 53.33252 -2.87394 212 ft 144 kts 88°
2026-04-20 16:01 53.33328 -2.85752 83 ft 133 kts 87°
2026-04-20 16:01 53.33382 -2.84585 65 ft 59 kts 85°
2026-04-20 16:02 53.33407 -2.84012 81 ft 43 kts 86°
2026-04-20 16:02 53.33423 -2.83667 73 ft 15 kts 80°
2026-04-20 16:02 53.33484 -2.83621 74 ft 9 kts 350°
2026-04-20 16:02 53.33548 -2.83636 71 ft 9 kts 353°
2026-04-20 16:03 53.33588 -2.83709 74 ft 10 kts 265°
2026-04-20 16:03 53.33582 -2.83826 70 ft 10 kts 265°
2026-04-20 16:03 53.33577 -2.83940 73 ft 10 kts 266°
2026-04-20 16:03 53.33571 -2.84084 72 ft 15 kts 265°
2026-04-20 16:04 53.33561 -2.84293 77 ft 20 kts 265°
2026-04-20 16:04 53.33549 -2.84537 81 ft 22 kts 265°
2026-04-20 16:04 53.33538 -2.84789 86 ft 21 kts 265°
2026-04-20 16:04 53.33526 -2.85035 85 ft 22 kts 266°
2026-04-20 16:05 53.33514 -2.85300 84 ft 21 kts 266°
2026-04-20 16:05 53.33508 -2.85468 84 ft 9 kts 272°
2026-04-20 16:05 53.33542 -2.85505 86 ft 5 kts 353°
2026-04-20 16:05 53.33576 -2.85510 85 ft 5 kts 355°
2026-04-20 16:06 53.33610 -2.85507 85 ft 5 kts
2026-04-20 16:06 53.33645 -2.85511 86 ft 5 kts 356°
2026-04-20 16:06 53.33665 -2.85513 89 ft 2 kts 356°
2026-04-20 16:06 53.33667 -2.85514 89 ft 0 kts 356°
2026-04-20 16:07 53.33666 -2.85513 89 ft 0 kts 356°
2026-04-20 16:07 53.33664 -2.85513 89 ft 0 kts 356°
2026-04-20 16:07 53.33665 -2.85513 89 ft 0 kts 356°